Terug naar catalogus

STARLINK-3552

ActiefCommunicatieVLEO
NORAD 51813·PAYLOAD·🇺🇸 United States

Gelanceerd Feb 25, 2022 vanaf Vandenberg Space Force Base

Loading…

Volgende Passages (komende 24 uur)

TLE

VersSource: CelesTrak SupGP

Epoch: Sep 15, 2026, 01:59 UTC

1 51813C 22017AX  26258.08312500 -.00011160  00000+0 -31928-3 0  2586
2 51813  53.1582 188.7759 0001302  88.3572 220.2573 15.35404599    15

Volg STARLINK-3552 in realtime met AllMySat

Download on the App Store